Location: Arrington
(35.8681°N, 86.7092°W)
Time: 00:13:59
(UTC+00:00)

Daily predictions for brighter satellites

Satellite Brightness Start Highest point End
(mag) Time Altitude Azimuth Time Altitude Azimuth Time Altitude Azimuth
Aurora 2 Rocket 4.3 00:01:06 10° SSW 00:03:09 15° S 00:04:34 13° SE
Cosmos 2279 Rocket 4.4 00:00:13 10° NNE 00:05:55 36° ENE 00:11:36 10° SE
Cosmos 1420 Rocket 3.9 00:06:59 10° N 00:12:08 64° ENE 00:17:15 10° SSE
CENTAUR R/B 4.4 00:08:11 10° N 00:13:40 19° NE 00:13:54 19° NE
Atlas Centaur 2 4.4 00:10:03 10° SSW 00:15:18 18° SSE 00:17:54 16° SE
SKYMED 2 4.4 00:11:42 10° N 00:15:55 51° WNW 00:20:07 10° SSW
NOSS 2-2 (C) 3.0 00:14:15 10° SSW 00:17:48 66° SE 00:17:48 66° SE
Cosmos 1452 Rocket 3.4 00:17:27 10° N 00:22:43 62° ENE 00:26:36 18° SSE
ASTRO E2 4.4 00:31:36 10° SW 00:34:14 24° S 00:34:14 24° S
ATLAS 2AS CENTAUR R/B 3.1 00:27:22 10° S 00:34:58 58° ESE 00:37:28 42° ENE
BREEZE-M DEB (TANK) 4.4 00:31:07 10° WSW 00:36:05 77° NNW 00:47:31 24° NE
ATLAS 3B R/B 4.5 00:34:39 10° N 00:36:24 14° NNE 00:36:24 14° NNE
GPS 2-04 Rocket1 3.8 00:37:42 10° W 00:40:00 36° WSW 00:40:00 36° WSW
Timation 1 Rocket 4.4 00:35:26 10° NNW 00:41:25 80° WSW 00:47:23 10° SSE
Meteor 1-14 Rocket 4.3 00:37:57 10° N 00:43:58 86° W 00:49:53 10° S
NOSS 2-2 (E) 4.2 00:40:37 10° SW 00:43:47 43° WNW 00:43:47 43° WNW
USA 238 DEB 4.0 00:39:19 10° NNW 00:46:05 48° NE 00:46:05 48° NE
USA 238 4.1 00:39:26 10° NNW 00:46:07 48° NE 00:46:07 48° NE
Cosmos 1048 Rocket 4.3 00:41:32 10° SSW 00:46:47 64° WNW 00:48:54 36° N
Centaur D-1AR AC-36 4.3 00:25:33 10° WSW 00:47:02 29° S 00:50:27 21° SSE
NOSS 3-2 (A) 4.3 00:41:02 10° NNW 00:48:24 47° NE 00:48:24 47° NE
SeaSat 1 2.8 00:49:45 23° S 00:52:45 62° WSW 00:57:38 10° NNW
NOAA 11 4.2 00:48:48 10° S 00:54:12 78° WSW 00:59:40 10° NNW
CSL-04 Rocket 4.5 00:53:16 10° S 00:58:24 48° W 01:03:31 10° NNW
CZ-4 R/B 3.6 00:56:27 10° SSW 00:59:51 25° W 01:03:13 10° NW
Centaur D-1A AC-31 2.7 00:57:41 10° SW 01:00:47 37° S 01:00:47 37° S
DELTA 2 R/B (1) 4.1 01:01:03 10° W 01:05:43 52° NW 01:05:43 52° NW
Meteor 2-6 Rocket 4.4 01:03:05 10° SSW 01:07:54 62° SW 01:07:54 62° SW
COSMOS 2455 4.1 01:09:52 10° WSW 01:15:22 36° NW 01:17:21 29° NNW
Cosmos 2360 Rocket 2.7 01:10:05 10° SW 01:15:29 55° WNW 01:15:29 55° WNW
SL-16 R/B 4.4 01:21:29 10° WSW 01:25:33 20° NW 01:28:33 14° NNW
Cosmos 2322 Rocket 4.3 01:26:09 10° WSW 01:30:18 21° WNW 01:32:35 16° NNW
Hubble Space Telescope 4.0 01:35:26 10° WSW 01:35:27 10° WSW 01:35:27 10° WSW
Atlas Centaur 2 4.5 01:57:07 10° SW 02:00:31 24° SSW 02:00:31 24° SSW
CENTAUR R/B 4.4 01:57:35 10° NNW 02:01:07 29° NNW 02:01:07 29° NNW
ATLAS 2AS CENTAUR R/B 4.4 02:19:17 10° WSW 02:24:58 32° WNW 02:24:58 32° WNW
SL-4 R/B 4.0 09:48:27 33° E 09:48:27 33° E 09:51:30 10° ESE
CZ-3B R/B 3.2 09:54:28 42° SSW 09:55:37 44° S 10:01:25 10° ESE
ATLAS 2AS CENTAUR R/B 2.8 10:00:51 50° NNW 10:02:56 75° ENE 10:09:47 10° SE
Meteor 2-20 Rocket 4.3 10:03:13 75° N 10:03:48 87° E 10:09:58 10° S
Cosmos 1459 Rocket 3.9 09:58:51 10° S 10:05:03 88° E 10:11:23 10° N
Cosmos 2360 Rocket 3.3 10:08:47 21° N 10:12:10 41° ENE 10:17:29 10° SE
COSMOS 2455 2.9 10:19:27 59° SW 10:19:27 59° SW 10:24:50 10° S
Cosmos 1833 4.0 10:18:50 44° SSW 10:20:43 90° WNW 10:26:23 10° NNE
SL-16 R/B 2.1 10:22:34 64° SW 10:22:34 64° SW 10:27:50 10° S
Cosmos 2016 Rocket 4.0 10:16:38 10° S 10:22:53 83° E 10:29:16 10° N
Cosmos 1725 Rocket 4.3 10:18:58 10° S 10:25:10 68° E 10:31:26 10° NNE
Cosmos 2322 Rocket 2.0 10:26:09 65° WNW 10:26:45 71° WSW 10:32:23 10° SSE
OAO 3 Rocket 4.1 10:27:15 36° SSW 10:27:15 36° SSW 10:31:19 10° SE
Cosmos 1125 Rocket 3.4 10:24:12 10° SSW 10:29:29 89° WNW 10:34:46 10° NNE
BREEZE-M DEB (TANK) 4.2 10:26:56 26° NW 10:32:27 52° NNE 10:36:22 10° E
ALOS 4.2 10:28:49 10° NE 10:32:57 30° E 10:37:02 10° SSE
Cosmos 1151 Rocket 2.9 10:36:43 53° N 10:37:42 87° W 10:42:00 10° S
Starlink Launch 2 leader 4.4 10:46:34 27° E 10:46:34 27° E 10:48:11 10° ENE
FALCON 9 DEB 4.3 10:49:11 29° E 10:49:11 29° E 10:50:50 10° ENE
STARLINK 1044 3.9 10:49:06 35° SSE 10:49:29 37° SE 10:52:07 10° ENE
COBE Rocket 3.8 10:44:23 10° S 10:49:30 81° WSW 10:54:32 10° NNW
Starlink Launch 2 trailer 4.1 10:50:07 32° E 10:50:07 32° E 10:51:54 10° ENE
Cosmos 2100 Rocket 4.5 10:45:37 10° SW 10:51:47 34° WNW 10:56:42 10° NNW
FALCON 9 DEB 3.9 10:52:10 34° E 10:52:10 34° E 10:54:00 10° ENE
Cosmos 1238 Rocket 4.1 10:46:12 10° S 10:52:40 76° E 10:58:26 10° N
SL-08 R/B 4.3 10:46:42 10° SSW 10:52:45 66° W 10:58:48 10° N
STARLINK-67 4.4 10:56:14 21° S 10:56:14 21° S 10:57:25 10° SSE
SEDSat Delta rocket 4.4 10:53:49 18° SSW 10:55:59 28° SSE 10:59:37 10° ESE
Cosmos 1328 Rocket 3.8 10:58:31 41° WNW 10:58:56 43° W 11:02:59 10° SSW
Cosmos 2219 Rocket 3.8 10:54:17 10° N 10:59:24 33° ENE 11:04:29 10° SE
Meteor PRIRODA 3.8 10:59:18 10° N 11:02:47 45° WNW 11:06:15 10° SSW
Tsikada Rocket 4.0 10:57:43 10° N 11:04:05 86° W 11:10:21 10° S
Cosmos 2322 4.0 10:59:07 10° NNW 11:04:46 67° ENE 11:10:22 10° SSE
Lacrosse 5 rocket 2.8 11:02:54 15° N 11:05:05 26° NE 11:08:08 10° E
CZ-3B R/B 4.2 11:04:06 10° SSW 11:06:40 15° S 11:11:01 10° SE
Cosmos 1805 Rocket 4.5 11:02:32 10° SSE 11:06:42 50° E 11:10:54 10° NNE
STARLINK 1050 2.8 11:06:11 32° SSW 11:07:19 69° SE 11:10:11 10° NE
Meteor 2-3 Rocket 3.7 11:01:48 10° S 11:07:33 80° W 11:13:23 10° N
SKYMED 2 3.6 11:03:21 10° SSE 11:07:40 85° E 11:12:02 10° N
Cosmos 1515 Rocket 3.5 11:04:03 13° NNW 11:07:52 59° W 11:12:08 10° S
CZ-4B R/B 3.9 11:02:36 10° NNE 11:08:00 57° ESE 11:13:27 10° S
Cosmos 1743 Rocket 3.6 11:03:54 10° SSW 11:08:07 52° W 11:12:20 10° N
Cosmos 1484 Rocket 2.9 11:04:36 10° N 11:08:32 55° WNW 11:12:24 10° SSW
STARLINK 1055 2.8 11:07:22 31° SSW 11:08:32 72° SE 11:11:22 10° NE
STARLINK 1022 2.7 11:08:31 30° SW 11:09:43 75° SE 11:12:34 10° NE
GPS 2-05 Rocket1 2.6 11:09:50 43° SSW 11:10:20 53° SSE 11:12:55 10° E
STARLINK 1042 2.7 11:09:20 29° SW 11:10:36 77° SE 11:13:29 10° NE
Cosmos 1933 3.3 11:08:20 12° NNW 11:11:54 59° W 11:15:49 10° S
STARLINK 1056 2.6 11:10:41 29° SW 11:11:59 81° SE 11:14:50 10° NE
STARLINK 1054 2.6 11:11:55 27° SW 11:13:18 84° SE 11:16:10 10° NE
NOSS 3-4 (A) 4.1 11:08:43 18° NW 11:14:04 52° WSW 11:21:40 10° S
NOSS 3-4 (C) 4.1 11:08:47 18° NW 11:14:11 53° WSW 11:21:46 10° S
STARLINK 1062 2.5 11:12:54 27° SW 11:14:18 87° SE 11:17:11 10° NE
Okean O Rocket 1.9 11:10:38 10° NNE 11:14:58 69° E 11:19:18 10° S
STARLINK 1053 2.5 11:14:34 26° SW 11:16:01 89° NW 11:18:54 10° NE
Cosmos 2228 Rocket 3.0 11:12:07 10° N 11:16:43 78° W 11:21:16 10° S
STARLINK 1061 2.5 11:15:14 24° SW 11:16:47 87° NW 11:19:41 10° NE
OAO 3 Copernicus 4.3 11:14:10 24° W 11:17:11 75° S 11:22:11 10° ESE
Cosmos 2333 Rocket 3.1 11:12:03 10° N 11:17:39 50° ENE 11:23:12 10° SE
Cosmos 1048 Rocket 4.2 11:13:10 13° NNW 11:17:42 50° WSW 11:22:47 10° S
STARLINK 1067 2.5 11:16:32 24° SW 11:18:04 83° NW 11:20:57 10° NE
Delta 2 Rocket 3.5 11:15:48 26° W 11:18:08 73° S 11:22:55 10° ESE
STARLINK 1058 2.5 11:17:37 23° SW 11:19:13 80° NW 11:22:06 10° NE
STARLINK 1043 2.5 11:18:48 22° SW 11:20:29 77° NW 11:23:23 10° NE
SJ-12 3.9 11:16:34 10° N 11:20:39 56° WNW 11:24:41 10° SSW
STARLINK 1017 2.4 11:19:49 23° SW 11:21:24 74° NW 11:24:12 10° NE
STARLINK 1065 2.5 11:19:53 22° SW 11:21:35 75° NW 11:24:27 10° NE
STARLINK 1034 2.4 11:20:40 23° SW 11:22:14 72° NW 11:25:03 10° NE
STARLINK 1063 2.5 11:21:18 21° SW 11:23:04 71° NW 11:25:56 10° NE
STARLINK 1064 2.5 11:22:17 20° SW 11:24:06 69° NW 11:26:58 10° NE
STARLINK 1027 2.5 11:22:36 20° WSW 11:24:27 68° NW 11:27:20 10° NE
STARLINK 1028 2.5 11:22:49 19° WSW 11:24:40 68° NW 11:27:33 10° NE
STARLINK 1021 2.5 11:23:01 19° WSW 11:24:53 67° NW 11:27:46 10° NE
STARLINK 1019 2.6 11:23:13 19° WSW 11:25:07 67° NW 11:28:01 10° NE
STARLINK 1012 2.6 11:23:27 19° WSW 11:25:20 66° NW 11:28:13 10° NE
STARLINK 1041 2.5 11:23:29 19° WSW 11:25:20 66° NW 11:28:12 10° NE
STARLINK 1010 2.6 11:23:40 19° WSW 11:25:33 66° NW 11:28:27 10° NE
STARLINK 1026 2.6 11:23:53 19° WSW 11:25:47 65° NW 11:28:40 10° NE
STARLINK 1013 2.6 11:24:06 19° WSW 11:26:00 65° NW 11:28:54 10° NE
STARLINK 1009 2.6 11:24:19 19° WSW 11:26:13 64° NW 11:29:06 10° NE
STARLINK 1015 2.6 11:24:31 18° WSW 11:26:27 64° NW 11:29:20 10° NE
SL-4 R/B 3.3 11:24:06 20° W 11:26:33 32° SW 11:30:46 10° SSE
STARLINK 1038 2.6 11:24:42 19° WSW 11:26:37 63° NW 11:29:29 10° NE
STARLINK 1016 2.6 11:24:44 18° WSW 11:26:40 63° NW 11:29:33 10° NE
STARLINK 1008 2.6 11:24:57 18° WSW 11:26:55 63° NW 11:29:49 10° NE
STARLINK-46 2.8 11:25:15 22° NW 11:26:59 72° NE 11:29:56 10° SE
STARLINK 1045 2.6 11:25:06 18° WSW 11:27:02 63° NW 11:29:55 10° NE
STARLINK 1014 2.6 11:25:10 18° WSW 11:27:07 63° NW 11:30:00 10° NE
Cosmos 1782 3.3 11:23:23 10° N 11:27:19 62° E 11:31:13 10° SSE
STARLINK 1025 2.6 11:25:22 18° WSW 11:27:21 62° NW 11:30:14 10° NE
Cosmos 2233 Rocket 4.0 11:21:13 10° SSW 11:27:23 60° W 11:33:38 10° N
STARLINK 1023 2.6 11:25:48 18° WSW 11:27:49 61° NW 11:30:43 10° NE
STARLINK 1046 2.6 11:25:54 18° WSW 11:27:52 61° NW 11:30:44 10° NE
STARLINK 1007 2.6 11:26:01 18° WSW 11:28:01 61° NW 11:30:54 10° NE
STARLINK 1048 2.6 11:26:14 17° WSW 11:28:15 60° NW 11:31:07 10° NE
STARLINK 1049 2.6 11:26:27 17° WSW 11:28:29 60° NW 11:31:22 10° NE
STARLINK 1051 2.6 11:26:41 17° WSW 11:28:43 60° NW 11:31:35 10° NE
STARLINK 1068 2.6 11:26:45 17° WSW 11:28:47 59° NW 11:31:40 10° NE
STARLINK 1037 2.7 11:26:54 17° WSW 11:28:56 59° NW 11:31:49 10° NE
STARLINK 1039 2.6 11:27:08 17° WSW 11:29:08 59° NW 11:32:00 10° NE
STARLINK 1059 2.7 11:27:06 17° WSW 11:29:10 59° NW 11:32:02 10° NE
STARLINK 1057 2.7 11:27:20 17° WSW 11:29:24 58° NW 11:32:15 10° NE
STARLINK 1052 2.7 11:27:32 17° WSW 11:29:37 58° NW 11:32:29 10° NE
Sich 1 3.4 11:25:29 10° S 11:29:42 66° E 11:33:56 10° NNE
Cosmos 1500 Rocket 4.2 11:25:40 10° SW 11:29:42 33° WNW 11:33:44 10° NNW
STARLINK 1029 2.7 11:27:59 17° WSW 11:30:04 57° NW 11:32:56 10° NE
STARLINK 1060 2.7 11:28:13 16° WSW 11:30:19 57° NW 11:33:12 10° NE
STARLINK 1030 2.7 11:28:25 16° WSW 11:30:32 56° NW 11:33:27 10° NE
STARLINK 1020 2.7 11:28:39 16° WSW 11:30:46 56° NW 11:33:38 10° NE
STARLINK 1033 2.7 11:29:17 16° WSW 11:31:27 55° NW 11:34:19 10° NE
STARLINK 1047 2.7 11:29:29 16° WSW 11:31:37 54° NW 11:34:29 10° NE
STARLINK 1031 2.7 11:29:31 16° WSW 11:31:40 54° NW 11:34:32 10° NE
Longmarch 3A Rocket 3.3 11:30:54 10° SSW 11:31:52 12° S 11:33:05 10° SE
STARLINK 1024 2.8 11:29:43 15° WSW 11:31:55 54° NW 11:34:48 10° NE
STARLINK 1035 2.8 11:29:58 15° WSW 11:32:10 54° NW 11:35:03 10° NE
STARLINK 1032 2.8 11:30:12 15° WSW 11:32:23 53° NW 11:35:16 10° NE
STARLINK 1011 2.8 11:30:22 15° WSW 11:32:37 53° NW 11:35:30 10° NE
STARLINK 1036 2.8 11:30:38 15° WSW 11:32:50 52° NW 11:35:42 10° NE
STARLINK 1040 3.2 11:40:01 14° WSW 11:42:01 35° NW 11:44:33 10° NNE
Timation 2 Rocket 4.2 11:36:24 10° SW 11:42:08 43° WNW 11:47:48 10° N
Cosmos 1400 Rocket 3.3 11:38:27 10° NNW 11:42:10 37° W 11:45:48 10° SSW
Cosmos 1818 3.8 11:37:19 10° SW 11:42:32 47° WNW 11:47:48 10° NNE
Cosmos 494 Rocket 4.2 11:42:06 10° NNW 11:47:08 50° WSW 11:52:07 10° S
Cosmos 1862 3.6 11:44:55 10° S 11:48:51 70° E 11:52:48 10° NNE
Cosmos 1666 Rocket 3.7 11:44:25 10° S 11:48:52 80° E 11:53:19 10° N
USA 116 3.8 11:45:51 10° S 11:49:01 43° W 11:52:33 10° NNW
ATLAS 2AS CENTAUR R/B 4.1 11:48:22 10° WNW 11:52:54 18° WSW 11:57:17 10° SW
CZ-3B R/B 3.0 11:49:39 10° WSW 11:55:43 28° SSW 11:59:24 10° SE
COSMO-SKYMED 1 3.6 11:52:08 10° SSW 11:55:45 25° W 11:59:22 10° NW
